Hourly Weather Otrada

Today, 28 July, Wednesday

Time Temperature Precipitation Wind Pressure Humidity
00:00 +15°C° 0 mm 2 mps 744 mmHg 85%
01:00 +15°C° 0 mm 2 mps 744 mmHg 85%
02:00 +14°C° 0 mm 2 mps 744 mmHg 85%
03:00 +13°C° 0 mm 1 mps 744 mmHg 84%
04:00 +12°C° 0 mm 1 mps 744 mmHg 85%
05:00 +13°C° 0 mm 2 mps 744 mmHg 82%
06:00 +14°C° 0 mm 2 mps 744 mmHg 80%
07:00 +14°C° 0 mm 3 mps 744 mmHg 77%
08:00 +17°C° 0 mm 3 mps 745 mmHg 67%
09:00 +19°C° 0 mm 4 mps 745 mmHg 56%
10:00 +20°C° 0 mm 5 mps 745 mmHg 45%
11:00 +21°C° 0 mm 5 mps 745 mmHg 40%
12:00 +22°C° 0 mm 5 mps 744 mmHg 36%
13:00 +22°C° 0 mm 5 mps 744 mmHg 31%
14:00 +23°C° 0 mm 5 mps 744 mmHg 30%
15:00 +23°C° 0 mm 5 mps 744 mmHg 29%
16:00 +23°C° 0 mm 5 mps 744 mmHg 29%
17:00 +22°C° 0 mm 4 mps 744 mmHg 32%
18:00 +21°C° 0 mm 3 mps 744 mmHg 35%
19:00 +20°C° 0 mm 3 mps 744 mmHg 38%
20:00 +18°C° 0 mm 2 mps 744 mmHg 43%
21:00 +16°C° 0 mm 1 mps 744 mmHg 47%
22:00 +14°C° 0 mm 1 mps 745 mmHg 52%
23:00 +13°C° 0 mm 1 mps 745 mmHg 54%

Tomorrow, 29 July, Thursday

Time Temperature Precipitation Wind Pressure Humidity
00:00 +13°C° 0 mm 1 mps 745 mmHg 56%
01:00 +12°C° 0 mm 1 mps 745 mmHg 59%
02:00 +12°C° 0 mm 1 mps 745 mmHg 60%
03:00 +12°C° 0 mm 1 mps 745 mmHg 61%
04:00 +11°C° 0 mm 1 mps 745 mmHg 63%
05:00 +13°C° 0 mm 1 mps 745 mmHg 58%
06:00 +15°C° 0 mm 1 mps 745 mmHg 54%
07:00 +17°C° 0 mm 2 mps 745 mmHg 49%
08:00 +19°C° 0 mm 2 mps 745 mmHg 44%
09:00 +21°C° 0 mm 3 mps 745 mmHg 39%
10:00 +24°C° 0 mm 3 mps 745 mmHg 33%
11:00 +25°C° 0 mm 3 mps 744 mmHg 31%
12:00 +26°C° 0 mm 3 mps 744 mmHg 28%
13:00 +27°C° 0 mm 3 mps 744 mmHg 25%
14:00 +27°C° 0 mm 3 mps 743 mmHg 24%
15:00 +27°C° 0 mm 4 mps 743 mmHg 23%
16:00 +28°C° 0 mm 4 mps 743 mmHg 22%
17:00 +27°C° 0 mm 3 mps 742 mmHg 25%
18:00 +26°C° 0 mm 3 mps 742 mmHg 29%
19:00 +25°C° 0 mm 2 mps 742 mmHg 32%
20:00 +23°C° 0 mm 2 mps 742 mmHg 40%
21:00 +21°C° 0 mm 3 mps 742 mmHg 49%
22:00 +20°C° 0 mm 3 mps 742 mmHg 57%
23:00 +19°C° 0 mm 3 mps 742 mmHg 62%

Day after tomorrow, 30 July, Friday

Time Temperature Precipitation Wind Pressure Humidity
00:00 +19°C° 0 mm 4 mps 741 mmHg 67%
01:00 +19°C° 0 mm 4 mps 741 mmHg 72%
02:00 +19°C° 0 mm 4 mps 741 mmHg 72%
03:00 +19°C° 0 mm 4 mps 741 mmHg 73%
04:00 +19°C° 0 mm 5 mps 740 mmHg 73%
05:00 +19°C° 0.3 mm 4 mps 740 mmHg 76%
06:00 +19°C° 0.3 mm 4 mps 740 mmHg 79%
07:00 +18°C° 0.3 mm 4 mps 740 mmHg 83%
08:00 +21°C° 0.2 mm 5 mps 740 mmHg 73%
09:00 +23°C° 0.2 mm 6 mps 739 mmHg 63%
10:00 +26°C° 0.2 mm 7 mps 739 mmHg 53%
11:00 +27°C° 0.1 mm 7 mps 739 mmHg 49%
12:00 +28°C° 0.1 mm 7 mps 739 mmHg 46%
13:00 +31°C° 0.1 mm 8 mps 739 mmHg 42%
14:00 +31°C° 0 mm 8 mps 739 mmHg 41%
15:00 +30°C° 0 mm 7 mps 739 mmHg 40%
16:00 +30°C° 0 mm 7 mps 739 mmHg 39%
17:00 +29°C° 0 mm 6 mps 739 mmHg 42%
18:00 +29°C° 0 mm 5 mps 739 mmHg 45%
19:00 +28°C° 0 mm 5 mps 740 mmHg 48%
20:00 +25°C° 0 mm 3 mps 740 mmHg 57%
21:00 +23°C° 0 mm 2 mps 740 mmHg 66%
22:00 +21°C° 0 mm 1 mps 741 mmHg 75%
23:00 +20°C° 0 mm 1 mps 741 mmHg 76%

31 July, Saturday

Time Temperature Precipitation Wind Pressure Humidity
00:00 +19°C° 0 mm 2 mps 741 mmHg 78%
01:00 +19°C° 0 mm 2 mps 741 mmHg 79%
02:00 +18°C° 0 mm 2 mps 741 mmHg 80%
03:00 +18°C° 0 mm 2 mps 741 mmHg 81%
04:00 +18°C° 0 mm 2 mps 741 mmHg 82%
05:00 +20°C° 0 mm 2 mps 741 mmHg 76%
06:00 +21°C° 0 mm 2 mps 741 mmHg 70%
07:00 +23°C° 0 mm 2 mps 741 mmHg 64%
08:00 +26°C° 0 mm 3 mps 741 mmHg 56%
09:00 +28°C° 0 mm 4 mps 741 mmHg 48%
10:00 +32°C° 0 mm 4 mps 741 mmHg 41%
11:00 +33°C° 0 mm 5 mps 740 mmHg 37%
12:00 +34°C° 0 mm 6 mps 740 mmHg 34%
13:00 +35°C° 0 mm 6 mps 740 mmHg 31%
14:00 +34°C° 0.1 mm 7 mps 740 mmHg 34%
15:00 +34°C° 0.1 mm 7 mps 739 mmHg 36%
16:00 +33°C° 0.1 mm 7 mps 739 mmHg 38%
17:00 +32°C° 0 mm 6 mps 740 mmHg 40%
18:00 +30°C° 0 mm 5 mps 740 mmHg 41%
19:00 +30°C° 0 mm 4 mps 740 mmHg 43%
20:00 +27°C° 0.6 mm 3 mps 740 mmHg 57%
21:00 +24°C° 0.6 mm 3 mps 740 mmHg 70%
22:00 +20°C° 0.6 mm 3 mps 741 mmHg 84%
23:00 +20°C° 0.1 mm 3 mps 741 mmHg 86%

1 August, Sunday

Time Temperature Precipitation Wind Pressure Humidity
00:00 +19°C° 0.1 mm 3 mps 741 mmHg 88%
01:00 +19°C° 0.1 mm 3 mps 741 mmHg 90%
02:00 +19°C° 0.1 mm 3 mps 741 mmHg 90%
03:00 +18°C° 0.1 mm 3 mps 741 mmHg 91%
04:00 +18°C° 0.1 mm 3 mps 741 mmHg 92%
05:00 +19°C° 0 mm 3 mps 742 mmHg 88%
06:00 +20°C° 0 mm 3 mps 742 mmHg 84%
07:00 +21°C° 0 mm 3 mps 742 mmHg 80%
08:00 +25°C° 0 mm 3 mps 742 mmHg 65%
09:00 +27°C° 0 mm 4 mps 743 mmHg 49%
10:00 +29°C° 0 mm 4 mps 743 mmHg 34%
11:00 +30°C° 0 mm 5 mps 743 mmHg 31%
12:00 +32°C° 0 mm 5 mps 743 mmHg 29%
13:00 +33°C° 0 mm 6 mps 743 mmHg 26%
14:00 +33°C° 0 mm 6 mps 743 mmHg 26%
15:00 +33°C° 0 mm 6 mps 743 mmHg 26%
16:00 +33°C° 0 mm 6 mps 743 mmHg 26%
17:00 +32°C° 0 mm 5 mps 743 mmHg 29%
18:00 +30°C° 0 mm 4 mps 743 mmHg 33%
19:00 +29°C° 0 mm 3 mps 743 mmHg 36%
20:00 +27°C° 0 mm 2 mps 743 mmHg 40%
21:00 +25°C° 0 mm 2 mps 743 mmHg 45%
22:00 +23°C° 0 mm 1 mps 744 mmHg 49%
23:00 +22°C° 0 mm 1 mps 744 mmHg 51%

2 August, Monday

Time Temperature Precipitation Wind Pressure Humidity
00:00 +20°C° 0 mm 0 mps 744 mmHg 53%
01:00 +19°C° 0 mm 0 mps 744 mmHg 56%
02:00 +18°C° 0 mm 0 mps 744 mmHg 57%
03:00 +18°C° 0 mm 0 mps 744 mmHg 59%
04:00 +18°C° 0 mm 0 mps 744 mmHg 60%
05:00 +21°C° 0 mm 1 mps 744 mmHg 56%
06:00 +23°C° 0 mm 1 mps 744 mmHg 52%
07:00 +24°C° 0 mm 1 mps 745 mmHg 48%
08:00 +27°C° 0 mm 2 mps 745 mmHg 43%
09:00 +29°C° 0 mm 2 mps 745 mmHg 37%
10:00 +31°C° 0 mm 3 mps 745 mmHg 32%
11:00 +33°C° 0 mm 3 mps 745 mmHg 29%
12:00 +34°C° 0 mm 4 mps 744 mmHg 25%
13:00 +36°C° 0 mm 4 mps 744 mmHg 22%
14:00 +36°C° 0 mm 4 mps 744 mmHg 22%
15:00 +36°C° 0 mm 3 mps 744 mmHg 22%
16:00 +36°C° 0 mm 3 mps 744 mmHg 22%
17:00 +35°C° 0 mm 3 mps 743 mmHg 26%
18:00 +34°C° 0 mm 2 mps 743 mmHg 29%
19:00 +32°C° 0 mm 1 mps 743 mmHg 32%
20:00 +30°C° 0 mm 1 mps 743 mmHg 34%
21:00 +28°C° 0 mm 1 mps 743 mmHg 36%
22:00 +26°C° 0 mm 1 mps 743 mmHg 38%
23:00 +26°C° 0 mm 2 mps 743 mmHg 38%
Show more